{"data":{"norad_id":27513,"epoch":"2026-05-24T21:12:09.870048Z","epoch_age_seconds":89045,"freshness":"FRESH","line1":"1 27513U 02041A   26144.88344757  .00000011  00000+0  00000+0 0  9998","line2":"2 27513   5.7447  73.2029 0004638 347.0955 204.3652  1.00271448 86793","mean_motion":1.00271448,"eccentricity":0.0004638,"inclination_deg":5.7447,"raan_deg":73.2029,"arg_perigee_deg":347.0955,"mean_anomaly_deg":204.3652,"bstar":0,"rev_number":8679,"period_min":1436.1017305744,"perigee_km":35767.133388288,"apogee_km":35806.245481289,"semimajor_km":42164.826434789,"source":"CELESTRAK","updated_at":"2026-05-25T13:38:14.323442Z"}}